User: anonymous   Login
Location: Dumpton Point
(51.3500°N, 1.4433°E)
Time: 10:40:07
(UTC+00:00)
Language:

Vanguard 2 - Orbit

View from above orbital plane
View from above orbital plane
View from above satellite
View from above satellite

Ground track
Ground track

The orbit data is extracted from the following two-line orbital elements,

1 00011U 59001A   22269.03554182  .00000152  00000-0  60109-4 0  9994
2 00011  32.8769 176.0604 1467334 261.7843  81.4285 11.86171322373601
Epoch (UTC): 26 September 2022 00:51:10
Eccentricity: 0.1467334
inclination: 32.8769°
perigee height: 551 km
apogee height: 2935 km
right ascension of ascending node: 176.0604°
argument of perigee: 261.7843°
revolutions per day: 11.86171322
mean anomaly at epoch: 81.4285°
orbit number at epoch: 37360

The dashed part of the orbit path shows where the satellite is in the earth's shadow,  

DLR